RADIO ROSTO (RS15)

Last updated on Tue Aug 25 2026 00:03:13 GMT+0000 (Coordinated Universal Time)

1 23439U 94085A 26236.58393747 -.00000057 00000+0 -41486-3 0 9991 2 23439 64.8151 192.5963 0158457 351.4585 8.3649 11.27584111303618
UTC large
Height (km)
Speed (km/s)
/
Latitude / Longitude
Inclination (degrees)
Orbital Period (minutes)
Azimuth
Elevation
Range (km)
Doppler Factor

Next 0 passes for location: London (51.5072 / 0.1276)

No passes found over London.
RADIO ROSTO (RS15)